Location: Derby
(52.9213°N, 1.4761°W)
Time: 16:52:12
(UTC+01:00)

Vanguard 2 Rocket - Pass Details

Date: 22 May 2025
Orbit: 554 x 3293 km, 32.9° (Epoch: 14 June)

Event Time Altitude Azimuth Distance (km) Brightness Sun altitude
Rises 22:28:54 0° 217° (SW) 7,261 11.3 -9.3°
Reaches altitude 10° 22:35:09 10° 206° (SSW) 6,190 10.8 -9.9°
Maximum altitude 22:49:02 26° 160° (SSE) 4,421 9.8 -11.0°
Drops below altitude 10° 22:59:51 10° 112° (ESE) 4,785 10.1 -11.8°
Sets 23:03:50 0° 100° (E) 5,393 10.5 -12.1°
